TimeCDT,TemperatureF,Dew PointF,Humidity,Sea Level PressureIn,VisibilityMPH,Wind Direction,Wind SpeedMPH,Gust SpeedMPH,PrecipitationIn,Events,Conditions,WindDirDegrees,DateUTC
12:13 AM,60.8,42.8,52,29.81,10.0,NW,11.5,-,N/A,,Clear,320,2013-05-15 05:13:00
12:33 AM,60.8,42.8,52,29.81,10.0,NNW,10.4,-,N/A,,Clear,330,2013-05-15 05:33:00
12:54 AM,59.0,42.8,55,29.82,10.0,NNW,9.2,-,N/A,,Clear,340,2013-05-15 05:54:00
1:34 AM,53.6,42.8,67,29.82,10.0,North,6.9,-,N/A,,Clear,350,2013-05-15 06:34:00
1:53 AM,55.4,42.8,63,29.83,10.0,NNW,5.8,-,N/A,,Clear,330,2013-05-15 06:53:00
2:13 AM,50.0,41.0,71,29.83,10.0,NW,4.6,-,N/A,,Clear,320,2013-05-15 07:13:00
2:33 AM,48.2,39.2,71,29.85,10.0,West,6.9,-,N/A,,Clear,270,2013-05-15 07:33:00
2:54 AM,50.0,41.0,71,29.85,10.0,West,6.9,-,N/A,,Clear,260,2013-05-15 07:54:00
3:13 AM,48.2,39.2,71,29.85,10.0,WSW,5.8,-,N/A,,Clear,250,2013-05-15 08:13:00
3:33 AM,48.2,42.8,82,29.86,10.0,West,6.9,-,N/A,,Clear,260,2013-05-15 08:33:00
3:54 AM,48.2,42.8,82,29.85,10.0,West,3.5,-,N/A,,Clear,260,2013-05-15 08:54:00
4:13 AM,48.2,42.8,82,29.85,10.0,WSW,4.6,-,N/A,,Clear,240,2013-05-15 09:13:00
4:34 AM,48.2,41.0,76,29.86,10.0,WSW,6.9,-,N/A,,Clear,250,2013-05-15 09:34:00
4:53 AM,46.4,41.0,81,29.87,10.0,West,6.9,-,N/A,,Clear,260,2013-05-15 09:53:00
5:13 AM,48.2,42.8,82,29.88,10.0,West,4.6,-,N/A,,Clear,280,2013-05-15 10:13:00
5:33 AM,48.2,42.8,82,29.88,10.0,NNW,3.5,-,N/A,,Clear,330,2013-05-15 10:33:00
5:53 AM,48.2,42.8,82,29.92,10.0,West,8.1,-,N/A,,Clear,260,2013-05-15 10:53:00
6:14 AM,51.8,44.6,76,29.93,10.0,WSW,6.9,-,N/A,,Clear,250,2013-05-15 11:14:00
6:34 AM,53.6,44.6,72,29.93,10.0,WSW,5.8,-,N/A,,Clear,250,2013-05-15 11:34:00
6:53 AM,53.6,44.6,72,29.91,10.0,Calm,Calm,-,N/A,,Clear,0,2013-05-15 11:53:00
7:13 AM,53.6,44.6,72,29.90,10.0,Calm,Calm,-,N/A,,Clear,0,2013-05-15 12:13:00
7:34 AM,55.4,46.4,72,29.89,10.0,Calm,Calm,-,N/A,,Clear,0,2013-05-15 12:34:00
7:53 AM,55.4,46.4,72,29.90,10.0,Calm,Calm,-,N/A,,Clear,0,2013-05-15 12:53:00
8:13 AM,57.2,46.4,67,29.88,10.0,SE,3.5,-,N/A,,Clear,140,2013-05-15 13:13:00
8:34 AM,57.2,46.4,67,29.89,10.0,Calm,Calm,-,N/A,,Clear,0,2013-05-15 13:34:00
8:53 AM,59.0,46.4,63,29.91,10.0,Calm,Calm,-,N/A,,Clear,0,2013-05-15 13:53:00
9:13 AM,62.6,46.4,55,29.92,10.0,SSW,5.8,-,N/A,,Clear,210,2013-05-15 14:13:00
9:33 AM,62.6,46.4,55,29.92,10.0,SSW,6.9,-,N/A,,Clear,210,2013-05-15 14:33:00
9:53 AM,64.4,46.4,52,29.92,10.0,SW,9.2,-,N/A,,Clear,220,2013-05-15 14:53:00
10:13 AM,69.8,46.4,43,29.91,10.0,WSW,11.5,-,N/A,,Clear,240,2013-05-15 15:13:00
10:34 AM,69.8,46.4,43,29.91,10.0,WSW,15.0,-,N/A,,Clear,250,2013-05-15 15:34:00
10:53 AM,71.6,44.6,38,29.90,10.0,WSW,11.5,18.4,N/A,,Clear,240,2013-05-15 15:53:00
11:14 AM,71.6,44.6,38,29.90,10.0,West,10.4,-,N/A,,Clear,260,2013-05-15 16:14:00
11:33 AM,73.4,44.6,36,29.90,10.0,WSW,8.1,-,N/A,,Clear,240,2013-05-15 16:33:00
11:54 AM,73.4,44.6,36,29.89,10.0,SW,8.1,-,N/A,,Clear,230,2013-05-15 16:54:00
12:13 PM,77.0,42.8,29,29.88,10.0,WNW,5.8,17.3,N/A,,Clear,290,2013-05-15 17:13:00
12:53 PM,78.8,41.0,26,29.87,10.0,WNW,8.1,-,N/A,,Clear,300,2013-05-15 17:53:00
1:13 PM,80.6,37.4,21,29.87,10.0,WNW,4.6,10.4,N/A,,Clear,290,2013-05-15 18:13:00
1:33 PM,80.6,37.4,21,29.86,10.0,NW,5.8,-,N/A,,Clear,320,2013-05-15 18:33:00
1:53 PM,80.6,33.8,18,29.86,10.0,NW,8.1,-,N/A,,Clear,310,2013-05-15 18:53:00
2:13 PM,82.4,35.6,19,29.86,10.0,West,16.1,23.0,N/A,,Clear,270,2013-05-15 19:13:00
2:33 PM,82.4,33.8,17,29.85,10.0,WSW,8.1,23.0,N/A,,Clear,250,2013-05-15 19:33:00
2:53 PM,82.4,33.8,17,29.85,10.0,West,16.1,20.7,N/A,,Clear,280,2013-05-15 19:53:00
3:13 PM,80.6,33.8,18,29.85,10.0,WSW,9.2,21.9,N/A,,Clear,250,2013-05-15 20:13:00
3:34 PM,82.4,33.8,17,29.85,10.0,WNW,18.4,23.0,N/A,,Clear,290,2013-05-15 20:34:00
3:54 PM,80.6,33.8,18,29.84,10.0,WNW,16.1,19.6,N/A,,Clear,290,2013-05-15 20:54:00
4:33 PM,80.6,35.6,20,29.83,10.0,West,16.1,-,N/A,,Clear,260,2013-05-15 21:33:00
4:53 PM,80.6,35.6,20,29.83,10.0,WNW,13.8,20.7,N/A,,Clear,290,2013-05-15 21:53:00
5:13 PM,80.6,35.6,20,29.83,10.0,West,15.0,-,N/A,,Clear,280,2013-05-15 22:13:00
5:34 PM,80.6,35.6,20,29.83,10.0,West,13.8,17.3,N/A,,Clear,280,2013-05-15 22:34:00
5:53 PM,78.8,37.4,23,29.83,10.0,WNW,13.8,-,N/A,,Clear,290,2013-05-15 22:53:00
6:13 PM,78.8,41.0,26,29.83,10.0,West,15.0,19.6,N/A,,Clear,260,2013-05-15 23:13:00
6:33 PM,78.8,41.0,26,29.83,10.0,West,13.8,19.6,N/A,,Clear,260,2013-05-15 23:33:00
6:53 PM,78.8,39.2,24,29.82,10.0,West,16.1,-,N/A,,Clear,270,2013-05-15 23:53:00
7:13 PM,77.0,39.2,26,29.82,10.0,West,15.0,-,N/A,,Clear,270,2013-05-16 00:13:00
7:34 PM,77.0,41.0,28,29.82,10.0,West,12.7,-,N/A,,Clear,260,2013-05-16 00:34:00
7:53 PM,75.2,41.0,29,29.82,10.0,West,10.4,-,N/A,,Clear,260,2013-05-16 00:53:00
8:14 PM,73.4,44.6,36,29.82,10.0,WSW,8.1,-,N/A,,Clear,250,2013-05-16 01:14:00
8:33 PM,69.8,44.6,40,29.82,10.0,WSW,8.1,-,N/A,,Clear,250,2013-05-16 01:33:00
8:53 PM,66.2,42.8,43,29.82,10.0,WSW,6.9,-,N/A,,Clear,240,2013-05-16 01:53:00
9:13 PM,66.2,42.8,43,29.82,10.0,WSW,5.8,-,N/A,,Clear,240,2013-05-16 02:13:00
9:33 PM,64.4,41.0,42,29.83,10.0,WSW,6.9,-,N/A,,Clear,250,2013-05-16 02:33:00
9:53 PM,62.6,39.2,42,29.83,10.0,WSW,8.1,-,N/A,,Clear,240,2013-05-16 02:53:00
10:13 PM,62.6,39.2,42,29.83,10.0,WSW,6.9,-,N/A,,Clear,240,2013-05-16 03:13:00
10:33 PM,60.8,37.4,42,29.84,10.0,WSW,8.1,-,N/A,,Clear,240,2013-05-16 03:33:00
10:53 PM,60.8,37.4,42,29.84,10.0,WSW,8.1,-,N/A,,Clear,240,2013-05-16 03:53:00
11:13 PM,57.2,37.4,48,29.84,10.0,SW,6.9,-,N/A,,Clear,220,2013-05-16 04:13:00
11:34 PM,57.2,37.4,48,29.85,10.0,WSW,6.9,-,N/A,,Clear,240,2013-05-16 04:34:00
11:53 PM,55.4,39.2,54,29.85,10.0,WSW,5.8,-,N/A,,Clear,250,2013-05-16 04:53:00